Home   Weather   Port Elizabeth   Past weeks

Flag for South Africa Past Weather in Port Elizabeth, South Africa — Yesterday and Last 2 Weeks

Now
61 °F

Clear.


Feels Like: 61 °F
Forecast: 62 / 71 °F
Wind: 2 mph from North

Location: Port Elizabeth Airport

Current Time: May 1, 2017 at 4:34:49 am

Latest Report: May 1, 2017 at 4:00 am


Visibility: 10 mi

Pressure: 30.04 "Hg

Humidity: 94%

Dew Point: 59 °F

Location of Port ElizabethLocation

Past Weather in Port Elizabeth — Graph

°F

Port Elizabeth Temperature Yesterday

Maximum temperature yesterday: 70 °F (at 11:00 am)
Minimum temperature yesterday: 59 °F (at 7:00 am)
Average temperature yesterday: 64 °F

High & Low Weather Summary for the Past Weeks

 TemperatureHumidityPressure
High90 °F (Apr 28, 1:19 pm)100% (Apr 17, 6:52 am)30.39 "Hg (Apr 17, 6:52 am)
Low48 °F (Apr 22, 6:26 am)33% (Apr 27, 12:00 pm)29.95 "Hg (Apr 26, 2:00 pm)
Average65 °F80%30.16 "Hg
* Reported Apr 16 3:00 am — May 1 3:00 am, Port Elizabeth, Weather by CustomWeather, © 2017

Note: Actual official high and low records may vary slightly from our data, if they occured in-between our weather recording intervals... More about our weather records

Advertising

Port Elizabeth Weather History for the Previous 24 Hours

Scroll right to see more
 ConditionsComfort  
Time TempWeatherWind HumidityBarometerVisibility
3:00 am
Mon, May 1
61 °FClear.2 mph94%30.04 "Hg10 mi
2:00 am63 °FClear.2 mph94%30.07 "Hg10 mi
1:00 am63 °FClear.6 mph94%30.07 "Hg10 mi
12:00 am64 °FClear.8 mph88%30.07 "Hg10 mi
11:00 pm
Sun, Apr 30
63 °FClear.2 mph94%30.09 "Hg10 mi
10:00 pm61 °FClear.N/A94%30.09 "Hg10 mi
9:00 pm64 °FPassing clouds.3 mph83%30.07 "HgN/A
8:00 pm64 °FPassing clouds.6 mph88%30.09 "HgN/A
7:00 pm64 °FClear.5 mph83%30.09 "Hg10 mi
6:00 pm66 °FPassing clouds.7 mph78%30.07 "HgN/A
5:00 pm68 °FSunny.7 mph73%30.07 "Hg10 mi
4:00 pm70 °FPassing clouds.8 mph69%30.07 "HgN/A
3:00 pm70 °FSunny.10 mph69%30.09 "Hg10 mi
2:00 pm70 °FSunny.14 mph73%30.09 "Hg10 mi
1:00 pm70 °FSunny.15 mph73%30.12 "Hg10 mi
12:00 pm70 °FSunny.10 mph69%30.15 "Hg10 mi
11:00 am70 °FSunny.13 mph69%30.15 "Hg10 mi
10:00 am66 °FSunny.10 mph73%30.18 "Hg10 mi
9:00 am61 °FFog.7 mph94%30.18 "Hg4 mi
8:25 am59 °FFog.8 mph94%30.18 "Hg0 mi
8:01 am59 °FFog.6 mph94%30.18 "Hg0 mi
7:20 am59 °FFog.7 mph94%30.18 "Hg0 mi
7:00 am59 °FFog.8 mph94%30.18 "Hg0 mi
6:00 am61 °FFog.6 mph94%30.18 "Hg0 mi
5:01 am61 °FFog.9 mph94%30.15 "Hg0 mi
4:10 am63 °FFog.9 mph88%30.18 "Hg2 mi
Weather by CustomWeather, © 2017

See weather overviewHow to use our weather pages